{"data":{"norad_id":56405,"epoch":"2026-09-20T11:11:07.284192Z","epoch_age_seconds":114870,"freshness":"FRESH","line1":"1 56405U 23061AH  26263.46605653  .00000667  00000+0  33761-4 0  9998","line2":"2 56405  43.0036 167.0025 0001684 261.8399  98.2261 15.27575878186666","mean_motion":15.27575878,"eccentricity":0.0001684,"inclination_deg":43.0036,"raan_deg":167.0025,"arg_perigee_deg":261.8399,"mean_anomaly_deg":98.2261,"bstar":3.3761e-5,"rev_number":18666,"period_min":94.267003082383,"perigee_km":481.90601300119,"apogee_km":484.21686463539,"semimajor_km":6861.1984388183,"source":"CELESTRAK","updated_at":"2026-09-21T09:00:33.435674Z"}}